Location: Ripley
(48.3812°N, 115.4473°W)
Time: 10:48:19
(UTC+00:00)

CAS-6 - Pass Details

Date: 02 July 2022
Orbit: 613 x 634 km, 97.9° (Epoch: 15 August)

Event Time Altitude Azimuth Distance (km) Brightness Sun altitude
Exits shadow 05:45:08 22° 159° (SSE) 1,392 ? -13.6°
Maximum altitude 05:47:58 79° 74° (ENE) 643 ? -13.9°
Drops below altitude 10° 05:52:19 10° 349° (NNW) 2,003 ? -14.2°
Sets 05:54:31 0° 348° (NNW) 2,911 ? -14.4°
